Dewpoint
11 18 18 8 7 9 8 7 8 6 5 8 6 7 8 10 9 10 10 11 11 11 11 11 12 12 12 13 14 15 16 16 16 16 16 16 14 14 15 14 13 13 13 14
12 15 8 7 7 8 7 8 7 4 4 7 3 3 6 8 9 9 10 10 11 11 11 11 12 12 12 13 13 15 16 17 17 16 16 15 15 14 14 15 14 15 14 14
18 11 7 8 6 8 8 5 5 5 2 2 2 3 3 4 6 7 8 9 10 10 11 11 12 12 12 13 13 14 15 17 17 16 16 16 16 16 14 14 15 15 16 15
14 7 7 6 6 6 13 3 4 4 5 11 6 7 3 3 2 4 4 5 6 7 9 10 11 12 12 12 13 14 15 16 17 18 17 16 16 16 15 15 15 15 15 14
16 9 7 6 6 4 6 2 3 4 5 3 0 7 4 0 0 0 0 3 2 3 5 6 8 8 9 10 12 13 14 15 16 17 17 18 17 16 16 16 16 15 16 16
9 6 5 6 4 4 3 3 4 3 8 16 6 7 11 10 7 -1 -2 -1 1 2 3 4 4 5 7 8 10 11 13 14 15 17 18 17 16 17 17 16 16 16 16 16
8 7 4 4 5 4 3 5 9 10 7 8 0 4 8 8 6 -1 -1 -1 -0 1 2 3 4 5 6 7 9 12 14 14 13 13 14 14 17 16 14 16 17 17 16 16
7 7 3 2 2 4 3 2 5 5 5 1 -1 4 5 4 -1 -0 0 -1 -0 1 1 2 2 4 6 7 13 13 13 6 0 1 5 7 8 13 17 17 17 17 16 16
6 6 -2 -5 -5 -0 6 4 0 -2 -2 -2 -2 -2 -5 -2 -2 -2 -2 -1 -1 -0 1 1 1 2 6 9 14 14 5 2 2 4 3 3 4 7 11 15 16 17 17 17
10 8 -2 -6 -4 -3 -2 -3 -1 -1 4 3 0 2 2 -1 -2 -2 -3 -4 -3 -2 -0 2 2 3 7 10 13 13 9 3 3 4 4 4 5 6 7 9 12 16 17 17
4 6 3 -3 -2 -3 -4 -3 -1 -4 -3 0 1 -0 -3 -1 -1 -3 -4 -5 -4 -2 -1 1 5 6 9 10 13 14 11 4 5 5 6 5 8 7 7 10 14 17 16 16
3 4 4 -2 -4 -7 -6 -8 -7 -4 -0 -2 -0 -2 -4 -3 -3 -3 -4 -4 -2 -1 1 3 6 8 12 12 14 15 12 6 7 7 8 9 10 13 14 15 14 12 13 16
3 1 0 -0 -4 -4 -2 -4 -4 -5 -5 -3 -0 -1 -5 -4 -3 -3 -2 -0 1 2 4 5 5 8 13 14 15 15 16 16 15 10 11 14 16 17 17 16 17 13 13 14
4 -1 -0 0 -1 -3 -1 -2 -3 -2 -0 -1 -2 -2 -2 -2 -1 -1 -1 -1 1 3 6 7 7 11 14 14 15 15 15 14 15 17 16 15 15 16 16 17 17 16 16 15
2 2 1 -1 -1 -3 -3 -3 -3 -2 -2 -1 -2 -2 -1 3 2 2 2 2 2 3 7 9 9 13 15 15 15 15 14 13 13 15 15 14 14 16 17 16 17 16 16 14
-5 -0 -1 1 -2 -3 -1 -2 -1 -2 -3 -2 -2 -1 4 5 5 4 4 4 4 5 7 10 11 12 14 14 13 12 12 12 13 14 14 14 15 16 17 12 16 16 12 11
-2 -1 2 3 0 0 1 -1 -0 -1 -3 -3 2 5 4 5 4 4 2 5 6 5 6 9 12 13 13 12 12 10 10 10 11 13 14 15 16 16 17 15 15 16 14 11
-1 1 2 3 1 5 -1 -2 -0 -0 -0 1 3 4 3 2 2 2 4 7 6 5 7 8 11 12 12 11 9 9 8 9 11 13 13 14 16 16 16 16 16 16 14 11
-2 0 2 3 1 -0 -1 2 3 3 3 4 4 4 3 2 1 1 4 4 5 5 7 9 9 10 12 11 10 11 11 11 10 12 12 13 15 16 16 16 16 15 15 12
-0 1 4 4 6 6 2 3 2 2 4 3 3 3 2 1 2 0 3 4 6 6 7 8 8 7 7 9 11 12 12 12 13 13 13 14 15 16 17 16 16 15 16 14
4 4 5 5 4 3 3 2 1 6 7 4 3 2 2 1 0 2 3 4 5 7 7 8 8 8 9 10 11 13 13 13 13 13 12 13 16 16 17 16 16 14 14 14
4 5 4 3 4 5 3 3 5 5 4 3 3 2 1 3 3 2 3 6 7 8 9 9 9 9 10 11 11 12 12 12 11 12 13 13 16 15 15 15 10 8 10 13
4 3 6 6 3 6 4 3 3 4 4 4 3 3 4 4 5 6 7 8 10 10 10 9 9 10 10 11 11 11 11 11 12 13 13 14 14 14 14 14 6 5 9 12
-3 4 4 4 2 4 4 2 5 6 5 5 5 5 6 7 8 8 9 9 9 9 9 9 9 10 10 11 11 12 11 11 12 12 12 12 13 12 13 12 9 10 12 13
-1 1 2 3 2 4 1 5 8 7 7 7 7 7 7 8 8 8 8 8 8 8 9 9 10 11 11 11 12 12 12 13 13 12 12 12 13 13 13 11 9 9 9 12
-3 -0 2 2 5 7 5 6 8 9 9 9 9 9 8 8 8 8 8 8 9 10 10 10 10 11 11 12 12 12 12 13 13 13 13 13 12 13 12 13 11 11 11 11
Wind_Speed
10 8 9 4 10 5 3 3 8 9 2 10 5 5 9 16 14 15 16 16 17 16 17 17 17 18 18 18 18 19 19 20 19 17 17 15 16 15 15 16 18 20 21 20
6 8 7 5 2 6 8 3 15 5 4 9 2 10 9 11 11 13 14 18 17 17 18 18 19 20 20 20 21 22 22 22 22 20 20 19 16 17 18 17 18 19 19 20
9 7 5 3 8 9 13 9 7 0 8 5 7 14 11 9 8 10 11 11 14 18 18 19 19 21 21 22 23 23 24 24 25 22 19 20 20 21 22 23 22 21 23 22
18 8 1 5 5 3 7 6 4 6 7 6 9 5 7 16 13 9 10 10 14 15 15 17 18 20 21 21 20 21 24 27 24 25 23 25 24 23 22 24 25 26 29 32
14 8 2 6 7 5 5 6 7 6 13 9 9 5 5 5 12 14 18 13 14 14 14 14 15 16 14 16 18 18 22 24 24 24 22 22 25 25 23 23 24 28 29 26
14 2 3 7 2 6 8 11 8 12 14 7 14 8 1 13 10 11 17 15 12 12 12 11 13 14 13 13 14 14 19 23 21 20 22 25 24 25 22 23 24 24 26 27
14 10 8 4 12 8 10 12 5 7 6 4 3 2 6 28 26 1 5 13 16 14 14 14 12 13 14 14 14 14 16 16 11 11 13 15 17 17 20 27 24 26 27 29
6 2 8 7 9 5 12 12 8 4 3 0 7 5 9 19 3 3 6 7 9 8 10 15 17 18 19 18 17 15 14 9 5 2 4 7 10 13 14 16 17 20 22 25
2 6 7 2 6 7 11 5 8 10 12 6 5 11 5 8 6 4 5 9 12 15 12 16 12 14 16 18 17 17 14 10 6 3 9 11 12 13 13 17 21 20 22 23
5 5 6 6 7 6 10 11 12 7 4 6 8 11 12 6 6 7 10 10 12 14 16 15 13 15 15 16 17 15 12 8 5 5 10 11 13 15 17 17 18 19 20 23
8 9 5 10 1 11 8 9 2 7 7 7 9 7 6 4 6 8 10 15 18 18 17 24 12 16 16 17 16 14 11 8 8 9 10 12 13 16 16 16 17 17 19 21
10 6 10 5 7 3 8 9 8 8 7 8 5 11 10 6 7 9 15 15 15 16 19 20 17 15 15 16 16 14 11 8 7 8 10 11 12 13 13 15 17 20 19 21
5 8 11 11 14 9 4 5 6 13 11 12 9 6 8 11 11 10 11 9 13 17 19 17 16 17 16 17 16 12 10 8 7 9 9 9 10 12 14 14 16 20 21 20
5 14 14 11 14 12 10 12 11 10 8 12 14 15 14 13 11 11 16 19 17 17 18 15 14 15 14 16 16 12 10 9 9 9 9 10 12 14 16 15 16 16 18 20
7 12 13 16 10 15 13 13 14 14 15 16 18 17 15 15 13 15 18 19 19 18 13 11 10 12 15 16 14 12 10 9 10 12 12 13 13 14 15 17 17 18 19 18
11 8 9 12 16 17 16 16 17 17 18 17 15 12 15 13 14 15 16 17 17 18 10 9 9 12 15 15 13 11 10 11 11 13 14 15 16 16 18 19 17 19 22 20
7 8 8 13 17 18 18 17 9 14 14 11 10 12 12 12 15 18 22 14 18 19 18 10 10 11 13 14 12 12 12 13 14 16 17 17 18 17 17 17 18 17 21 19
8 7 8 12 14 14 5 0 3 11 13 7 7 8 10 12 16 20 12 15 19 19 20 16 11 11 12 13 12 10 14 16 17 18 20 19 20 20 18 17 16 18 18 19
13 11 11 10 12 18 12 12 6 7 11 7 6 9 14 18 20 19 22 20 20 17 16 12 11 9 9 11 12 12 14 16 18 19 21 21 23 23 20 17 16 16 20 21
9 4 9 11 13 17 18 9 3 5 10 8 9 13 18 23 14 12 23 21 20 17 15 14 12 11 11 9 12 13 13 14 15 16 20 23 24 24 20 17 16 16 18 21
11 10 12 12 15 15 8 4 3 9 4 11 14 17 20 15 18 21 21 18 16 14 15 15 14 14 14 15 15 15 15 16 17 19 19 21 23 23 20 18 14 15 18 20
14 15 13 13 17 16 14 5 5 7 10 14 18 20 20 19 19 19 18 18 18 17 16 16 17 16 17 17 18 19 22 24 25 27 28 22 20 24 22 21 17 16 17 22
9 9 6 9 11 4 6 9 8 7 12 15 16 15 14 14 15 15 16 15 16 17 18 19 20 21 20 21 22 25 26 27 27 26 27 25 25 26 26 24 20 23 17 18
10 5 7 11 8 1 6 10 8 11 12 12 11 13 12 12 15 16 16 18 20 21 23 23 24 24 25 24 25 25 28 29 28 29 30 31 31 29 26 26 15 20 21 18
8 3 6 9 13 12 7 9 9 10 9 10 10 13 13 14 17 18 19 21 21 22 22 23 23 24 25 25 24 25 26 27 29 30 30 31 29 26 21 27 26 25 25 20
8 3 5 7 6 6 12 12 11 9 11 12 13 15 15 16 18 19 20 20 22 22 22 21 22 24 24 25 25 26 28 29 28 31 33 32 28 26 25 21 21 19 23 21
Wind_Direction
172 94 226 92 49 36 318 184 109 98 101 238 65 199 151 159 194 176 182 182 187 190 188 190 195 200 202 206 211 213 216 217 218 220 224 231 233 240 243 241 239 234 235 234
168 247 95 74 95 217 241 158 76 326 99 274 113 86 119 144 183 187 196 184 196 199 197 200 204 209 213 215 219 221 221 227 225 226 229 230 240 243 245 245 243 243 236 237
293 332 77 290 181 241 357 5 1 305 130 208 154 133 121 132 158 151 203 191 196 198 205 203 207 213 218 222 223 225 229 227 234 233 235 239 243 242 246 243 242 246 245 243
183 118 301 255 255 89 205 309 293 245 130 282 182 31 165 158 133 164 185 180 184 194 202 202 208 217 222 226 226 227 232 236 239 235 234 232 240 247 251 250 247 245 252 257
288 279 277 256 47 320 65 327 304 271 251 181 226 85 74 152 147 164 159 174 177 175 185 195 205 208 217 220 222 226 232 233 238 234 244 240 244 249 255 256 254 251 250 251
230 231 233 334 15 271 308 273 254 238 85 7 264 133 349 336 282 178 153 162 166 185 185 197 195 200 209 212 214 219 223 234 236 237 235 248 244 243 251 255 256 255 255 256
222 206 150 273 257 218 243 246 252 287 196 175 74 268 174 203 245 151 181 175 182 188 206 204 218 211 210 211 211 209 208 232 236 235 242 248 255 264 259 254 259 259 260 261
131 71 195 158 278 270 303 318 331 281 17 193 132 103 146 193 40 227 259 271 288 224 228 233 215 210 219 216 205 193 204 195 209 262 273 273 268 260 261 271 267 259 261 264
340 133 117 27 299 274 284 317 340 310 265 249 152 116 177 120 119 110 296 233 254 258 243 266 241 214 217 208 202 188 191 200 200 241 298 292 294 293 270 258 256 264 266 268
275 220 163 114 240 207 285 332 301 282 319 293 50 268 67 138 47 30 306 328 322 305 281 244 254 240 214 209 201 188 191 204 222 257 276 279 288 296 298 296 294 283 274 264
284 157 256 207 189 6 311 279 240 295 299 309 293 101 120 66 3 334 313 301 314 314 305 317 243 257 205 208 201 187 188 213 240 255 271 279 285 297 297 297 297 287 283 269
247 322 256 82 111 279 288 302 291 308 314 318 331 272 58 26 308 305 314 320 320 322 310 298 289 246 191 205 205 198 197 211 243 268 278 277 284 284 284 287 292 294 287 285
331 259 263 222 156 178 229 7 315 308 283 263 272 291 33 350 345 342 297 316 338 324 309 296 273 237 197 209 213 212 206 211 234 259 277 281 276 279 281 284 285 300 303 294
301 277 295 312 342 343 322 297 303 300 288 308 303 319 331 327 332 335 342 335 318 320 318 299 266 211 206 217 219 220 220 229 240 244 257 266 278 281 280 282 289 291 297 294
257 290 312 307 320 303 295 280 282 284 286 288 305 302 321 16 0 342 329 325 313 314 315 304 254 216 216 218 225 231 236 244 250 254 261 268 279 282 279 292 288 290 289 288
256 265 277 293 281 280 301 310 306 281 269 273 288 300 42 18 355 346 324 329 327 321 322 303 259 225 221 221 235 245 248 256 262 262 262 266 269 275 278 295 294 289 299 298
278 321 324 305 316 313 295 287 326 323 323 333 325 25 12 2 353 336 327 348 342 332 331 310 278 244 235 238 245 257 263 270 268 268 267 269 270 271 270 282 289 283 291 293
300 263 261 276 292 286 313 36 273 308 299 353 350 17 351 343 332 321 339 352 339 334 322 315 284 257 266 261 270 300 290 289 280 274 273 272 270 268 266 273 281 285 283 287
294 306 300 306 290 291 288 29 15 346 321 72 358 337 331 334 325 300 7 342 328 326 330 321 308 290 281 291 298 293 288 285 277 277 277 275 266 263 262 266 273 276 275 287
245 245 263 282 298 288 298 104 36 315 271 43 358 342 335 338 325 333 337 327 325 320 321 318 324 314 312 332 310 299 297 291 294 290 282 276 268 263 260 262 267 274 267 281
279 283 273 284 289 288 58 29 313 260 10 346 340 332 335 329 321 313 311 319 327 334 328 333 324 316 316 315 309 303 297 293 290 289 284 276 272 262 256 257 258 276 279 280
285 280 282 288 287 296 17 291 329 8 342 338 335 332 324 320 314 310 323 331 333 330 330 330 327 321 320 316 314 307 302 299 300 294 292 283 272 273 267 252 265 287 289 275
291 291 321 311 325 123 0 343 353 349 325 324 319 321 322 325 334 337 337 333 330 329 328 325 321 316 312 310 308 305 302 304 302 298 295 288 272 273 269 257 269 287 275 266
291 37 274 287 292 32 329 340 6 338 326 316 320 318 322 331 329 332 330 326 323 322 322 321 318 315 312 310 308 305 306 307 306 300 293 287 281 278 266 256 255 281 274 255
302 337 301 299 280 330 264 15 350 333 324 324 324 324 326 327 324 325 323 321 321 320 320 319 318 315 312 311 310 310 310 310 307 301 294 288 281 274 248 254 249 274 254 240
314 311 286 322 43 337 323 330 333 330 326 324 326 321 319 319 320 320 318 317 316 316 316 315 315 314 314 313 313 314 312 310 308 302 293 289 283 274 262 246 257 263 242 245
Height
1498 1502 1513 1480 1477 1483 1477 1477 1482 1476 1480 1477 1479 1480 1477 1487 1492 1494 1499 1505 1508 1512 1515 1519 1522 1525 1527 1529 1531 1533 1535 1537 1538 1540 1541 1542 1543 1544 1545 1545 1546 1547 1548 1549
1494 1506 1482 1477 1479 1480 1475 1480 1479 1481 1475 1473 1472 1478 1477 1482 1488 1492 1494 1498 1504 1508 1510 1514 1518 1521 1523 1525 1527 1529 1531 1532 1533 1535 1536 1539 1540 1541 1541 1541 1542 1542 1543 1544
1523 1487 1481 1479 1476 1479 1482 1477 1480 1480 1476 1474 1473 1483 1484 1483 1486 1489 1492 1494 1498 1501 1505 1508 1512 1515 1518 1520 1523 1525 1527 1528 1528 1530 1533 1535 1535 1536 1536 1536 1538 1538 1536 1537
1501 1485 1482 1477 1478 1480 1516 1475 1474 1473 1486 1515 1470 1511 1484 1477 1483 1490 1489 1493 1493 1496 1500 1502 1506 1510 1512 1515 1518 1521 1522 1522 1524 1525 1527 1529 1530 1530 1530 1530 1532 1532 1531 1531
1511 1485 1480 1479 1479 1478 1483 1473 1472 1469 1467 1470 1474 1497 1490 1478 1482 1480 1481 1488 1488 1493 1496 1498 1501 1503 1507 1509 1513 1515 1517 1518 1519 1520 1520 1523 1523 1525 1526 1526 1525 1525 1525 1525
1483 1481 1479 1475 1478 1478 1475 1476 1470 1463 1481 1546 1483 1491 1526 1509 1491 1472 1473 1481 1486 1489 1492 1494 1496 1500 1503 1506 1508 1511 1512 1513 1514 1515 1517 1517 1518 1519 1521 1521 1521 1520 1520 1519
1478 1475 1473 1481 1479 1473 1474 1478 1514 1506 1496 1502 1469 1478 1490 1493 1479 1469 1472 1473 1478 1483 1487 1490 1495 1497 1500 1502 1505 1507 1508 1508 1509 1510 1511 1512 1513 1513 1513 1514 1515 1515 1515 1512
1485 1497 1477 1476 1478 1485 1469 1469 1483 1504 1507 1482 1465 1485 1483 1473 1470 1473 1475 1476 1477 1478 1481 1482 1484 1489 1495 1498 1500 1502 1502 1503 1505 1506 1507 1508 1509 1509 1509 1509 1508 1509 1508 1508
1477 1488 1475 1478 1476 1475 1486 1485 1463 1476 1460 1477 1463 1462 1455 1464 1468 1472 1474 1475 1476 1476 1477 1479 1480 1483 1489 1494 1497 1497 1497 1498 1500 1501 1504 1504 1504 1504 1505 1504 1503 1503 1501 1500
1490 1499 1473 1476 1476 1475 1476 1470 1484 1470 1503 1506 1482 1480 1484 1473 1471 1473 1474 1472 1473 1473 1472 1473 1477 1481 1486 1492 1495 1495 1494 1495 1496 1498 1499 1500 1500 1500 1499 1498 1497 1496 1494 1493
1466 1479 1485 1472 1477 1481 1476 1474 1470 1469 1477 1497 1500 1489 1463 1471 1473 1474 1475 1474 1473 1474 1474 1473 1472 1479 1482 1489 1493 1492 1491 1492 1494 1494 1495 1496 1497 1496 1494 1493 1492 1490 1489 1488
1471 1474 1480 1472 1471 1475 1475 1478 1478 1488 1495 1476 1488 1488 1457 1465 1470 1472 1473 1474 1475 1475 1476 1477 1473 1476 1479 1487 1491 1490 1488 1489 1490 1491 1491 1491 1491 1491 1490 1488 1486 1484 1482 1480
1473 1478 1484 1477 1473 1477 1476 1475 1477 1475 1472 1488 1498 1483 1455 1462 1466 1470 1472 1472 1475 1477 1476 1474 1474 1474 1478 1485 1488 1489 1487 1487 1486 1486 1486 1486 1487 1486 1485 1483 1481 1478 1475 1473
1486 1476 1477 1488 1481 1473 1483 1479 1473 1476 1488 1484 1479 1473 1464 1464 1465 1467 1470 1472 1474 1474 1474 1472 1471 1472 1477 1483 1486 1486 1485 1485 1485 1484 1484 1484 1483 1482 1481 1479 1476 1474 1471 1467
1481 1485 1478 1474 1472 1473 1475 1476 1475 1479 1477 1486 1476 1473 1466 1467 1471 1474 1475 1474 1473 1471 1472 1472 1471 1473 1477 1480 1483 1482 1482 1482 1482 1481 1480 1479 1478 1477 1474 1472 1471 1468 1465 1461
1473 1486 1483 1488 1478 1473 1475 1468 1470 1470 1469 1468 1467 1468 1468 1477 1479 1479 1477 1474 1473 1471 1469 1472 1471 1472 1475 1477 1479 1478 1478 1478 1478 1476 1475 1474 1472 1471 1468 1465 1464 1461 1457 1455
1475 1478 1486 1496 1480 1479 1489 1469 1467 1466 1463 1465 1478 1475 1478 1481 1483 1482 1477 1474 1475 1474 1470 1469 1472 1471 1472 1473 1474 1474 1474 1473 1472 1471 1469 1468 1466 1465 1462 1459 1458 1456 1452 1449
1476 1482 1485 1492 1482 1511 1466 1459 1468 1473 1471 1468 1477 1480 1485 1486 1486 1483 1478 1481 1479 1475 1473 1470 1469 1470 1471 1472 1471 1469 1470 1469 1468 1466 1465 1462 1462 1458 1456 1453 1452 1451 1448 1445
1476 1477 1486 1495 1491 1478 1468 1468 1472 1477 1479 1477 1486 1487 1487 1487 1486 1479 1479 1481 1479 1476 1473 1471 1470 1470 1470 1470 1469 1468 1467 1464 1461 1460 1460 1457 1455 1451 1450 1448 1446 1445 1442 1440
1471 1477 1490 1489 1503 1507 1472 1470 1477 1476 1489 1485 1489 1489 1488 1487 1483 1478 1481 1479 1477 1474 1474 1473 1471 1470 1469 1467 1467 1464 1461 1459 1456 1454 1452 1450 1448 1445 1442 1441 1439 1438 1436 1434
1475 1474 1482 1479 1486 1475 1471 1477 1479 1493 1494 1489 1490 1490 1489 1486 1486 1484 1481 1477 1477 1475 1475 1473 1472 1470 1468 1467 1464 1461 1457 1454 1451 1448 1443 1440 1439 1437 1435 1435 1432 1430 1431 1429
1481 1484 1481 1475 1483 1490 1482 1478 1488 1490 1490 1490 1489 1488 1487 1486 1483 1481 1478 1477 1477 1476 1474 1473 1470 1468 1466 1464 1460 1457 1453 1449 1445 1442 1438 1433 1430 1431 1429 1427 1425 1422 1420 1423
1483 1474 1482 1484 1481 1484 1487 1488 1489 1491 1492 1491 1490 1488 1486 1484 1483 1481 1481 1480 1478 1476 1474 1471 1468 1465 1462 1459 1456 1451 1447 1443 1438 1434 1430 1425 1422 1421 1421 1420 1419 1418 1413 1413
1469 1475 1480 1483 1478 1481 1488 1488 1491 1494 1493 1491 1489 1487 1486 1485 1484 1482 1481 1479 1476 1473 1470 1467 1463 1460 1456 1453 1449 1445 1440 1436 1431 1426 1421 1417 1412 1413 1412 1412 1410 1407 1411 1410
1474 1481 1480 1483 1483 1486 1488 1491 1494 1493 1492 1490 1489 1487 1485 1484 1483 1481 1479 1476 1473 1470 1467 1464 1460 1456 1452 1448 1444 1439 1434 1429 1424 1418 1413 1408 1404 1405 1405 1404 1403 1401 1401 1403
1477 1476 1483 1484 1488 1493 1492 1492 1493 1493 1492 1491 1489 1487 1485 1483 1481 1479 1476 1473 1470 1466 1463 1459 1456 1452 1447 1443 1438 1433 1428 1423 1417 1410 1404 1400 1398 1396 1397 1397 1398 1395 1395 1397